Purpose,UTC,SCLOCK,Start_Ephemeris_s,End_Ephemeris_s,Spin_Counter,Sector,Start_Sector_Sclock_major,Subsector,Microsectors_Covered,Spin_Period_s,Staring,Sensor_Bitrate,Start,Stop,Year,Ave_doy,Radial_Distance,Latitude,Local_Time,MPQ_0.476,MPQ_0.500,MPQ_0.525,MPQ_0.552,MPQ_0.579,MPQ_0.608,MPQ_0.639,MPQ_0.670,MPQ_0.704,MPQ_0.739,MPQ_0.776,MPQ_0.815,MPQ_0.856,MPQ_0.898,MPQ_0.943,MPQ_0.991,MPQ_1.040,MPQ_1.092,MPQ_1.147,MPQ_1.204,MPQ_1.264,MPQ_1.327,MPQ_1.394,MPQ_1.464,MPQ_1.537,MPQ_1.614,MPQ_1.694,MPQ_1.779,MPQ_1.868,MPQ_1.961,MPQ_2.059,MPQ_2.162,MPQ_2.270,MPQ_2.384,MPQ_2.503,MPQ_2.628,MPQ_2.760,MPQ_2.898,MPQ_3.043,MPQ_3.195,MPQ_3.355,MPQ_3.522,MPQ_3.698,MPQ_3.883,MPQ_4.077,MPQ_4.281,MPQ_4.495,MPQ_4.720,MPQ_4.956,MPQ_5.204,MPQ_5.464,MPQ_5.737,MPQ_6.024,MPQ_6.325,MPQ_6.642,MPQ_6.974,MPQ_7.322,MPQ_7.689,MPQ_8.073,MPQ_8.477,MPQ_8.901,MPQ_9.346,MPQ_9.813,MPQ_10.303,MPQ_10.819,MPQ_11.360,MPQ_11.928,MPQ_12.524,MPQ_13.150,MPQ_13.808,MPQ_14.498,MPQ_15.223,MPQ_15.984,MPQ_16.783,MPQ_17.622,MPQ_18.504,MPQ_19.429,MPQ_20.400,MPQ_21.420,MPQ_22.491,MPQ_23.616,MPQ_24.796,MPQ_26.036,MPQ_27.338,MPQ_28.705,MPQ_30.140,MPQ_31.647,MPQ_33.230,MPQ_34.891,MPQ_36.636,MPQ_38.467,MPQ_40.391,MPQ_42.410,MPQ_44.531,MPQ_46.757,MPQ_49.095,MPQ_51.550,MPQ_54.128,MPQ_56.834,MPQ_59.676,MPQ_62.659,MPQ_65.792,MPQ_69.082,MPQ_72.536,MPQ_76.163,MPQ_79.971,MPQ_83.970,MPQ_88.168,MPQ_92.577,MPQ_97.205
valid_min,,,,,,,,,,,,,,,,,,,,,,,,,,,,,,,,,,,,,,,,,,,,,,,,,,,,,,,,,,,,,,,,,,,,,,,,,,,,,,,,,,,,,,,,,,,,,,,,,,,,,,,,,,,,,,,,,,,,,,,,,,,,,,,,,,
valid_max,,,,,,,,,,,,,,,,,,,,,,,,,,,,,,,,,,,,,,,,,,,,,,,,,,,,,,,,,,,,,,,,,,,,,,,,,,,,,,,,,,,,,,,,,,,,,,,,,,,,,,,,,,,,,,,,,,,,,,,,,,,,,,,,,,
min,,,,,,,,,,,,,,,,,,,,,,,,,,,,,,,,,,,,,,,,,,,,,,,,,,,,,,,,,,,,,,,,,,,,,,,,,,,,,,,,,,,,,,,,,,,,,,,,,,,,,,,,,,,,,,,,,,,,,,,,,,,,,,,,,,
max,,,,,,,,,,,,,,,,,,,,,,,,,,,,,,,,,,,,,,,,,,,,,,,,,,,,,,,,,,,,,,,,,,,,,,,,,,,,,,,,,,,,,,,,,,,,,,,,,,,,,,,,,,,,,,,,,,,,,,,,,,,,,,,,,,
mean,,,,,,,,,,,,,,,,,,,,,,,,,,,,,,,,,,,,,,,,,,,,,,,,,,,,,,,,,,,,,,,,,,,,,,,,,,,,,,,,,,,,,,,,,,,,,,,,,,,,,,,,,,,,,,,,,,,,,,,,,,,,,,,,,,
stdev,,,,,,,,,,,,,,,,,,,,,,,,,,,,,,,,,,,,,,,,,,,,,,,,,,,,,,,,,,,,,,,,,,,,,,,,,,,,,,,,,,,,,,,,,,,,,,,,,,,,,,,,,,,,,,,,,,,,,,,,,,,,,,,,,,
"sci",2012-140T00:30,"1/1716081713:10",3.906576661851797E+08,3.906612661851789E+08,-1,-1,-1,-1,-1,-1,-1,-1,2012-140T00:00,2012-140T01:00,2012,140.0208,16.102,0.200,18.860,0,0,0,0,0,0,0,3,11,36,68,118,234,550,555,549,350,123,49,31,20,17,18,15,21,18,31,101,104,158,141,87,56,24,6,9,7,1,8,4,9,8,15,9,10,7,5,2,4,5,0,1,2,0,1,3,7,8,10,9,1,3,3,2,2,4,4,4,9,12,18,95,151,97,81,44,36,20,11,6,7,6,4,2,2,2,4,3,5,1,2,0,1,2,0,1,0,1,0,0,0,1,0,1,0,0,0,0,0,0
"sci",2012-140T01:30,"1/1716085313:16",3.906612661851789E+08,3.906648661851780E+08,-1,-1,-1,-1,-1,-1,-1,-1,2012-140T01:00,2012-140T02:00,2012,140.0625,15.747,0.195,18.915,0,0,0,0,0,0,0,0,7,38,61,119,401,1065,1006,941,533,223,84,54,31,31,28,28,27,23,41,125,164,260,192,140,71,41,14,13,11,14,8,8,14,18,10,24,17,9,5,4,3,2,3,1,3,1,2,6,10,9,15,5,5,9,1,5,3,5,2,6,14,15,36,121,207,135,109,68,42,26,19,13,10,8,5,3,4,6,5,4,2,2,1,0,2,1,1,3,3,1,1,0,1,1,1,0,0,0,0,0,0,0
"sci",2012-140T02:30,"1/1716088913:21",3.906648661851780E+08,3.906684661851772E+08,-1,-1,-1,-1,-1,-1,-1,-1,2012-140T02:00,2012-140T03:00,2012,140.1042,15.386,0.190,18.973,0,0,0,0,0,0,0,0,17,32,77,148,430,1066,1110,1061,721,244,85,55,40,29,41,21,34,30,46,138,154,228,218,211,87,28,13,8,11,14,6,8,6,19,8,19,23,15,8,5,2,6,6,4,4,1,2,4,10,6,15,4,6,6,5,3,3,2,6,2,4,14,27,114,254,158,107,67,36,20,22,13,2,2,4,7,4,5,9,4,3,2,6,0,2,4,1,2,3,1,2,0,2,1,0,2,0,0,0,0,0,0
"sci",2012-140T03:30,"1/1716092513:27",3.906684661851772E+08,3.906720661851764E+08,-1,-1,-1,-1,-1,-1,-1,-1,2012-140T03:00,2012-140T04:00,2012,140.1458,15.020,0.184,19.033,0,0,0,0,0,0,0,7,25,62,94,121,226,435,457,518,346,115,74,41,32,24,24,26,22,33,66,191,163,254,251,188,74,35,16,18,14,10,11,12,11,25,16,14,25,7,6,6,1,2,4,6,1,5,1,3,3,13,11,6,4,11,2,6,5,5,7,6,9,18,32,132,267,133,113,73,29,17,17,9,10,10,8,6,7,6,7,3,1,2,2,0,2,4,0,1,2,1,0,0,0,0,0,1,1,0,0,0,0,0
"sci",2012-140T04:30,"1/1716096113:33",3.906720661851764E+08,3.906756661851755E+08,-1,-1,-1,-1,-1,-1,-1,-1,2012-140T04:00,2012-140T05:00,2012,140.1875,14.648,0.178,19.097,0,0,0,0,0,0,0,7,24,58,91,137,225,467,496,499,320,133,56,43,25,31,27,25,30,34,59,192,174,226,245,179,99,40,16,20,14,10,13,11,9,19,27,18,14,5,5,5,6,5,3,2,9,4,4,2,6,10,24,7,5,5,4,4,3,3,9,9,13,16,41,123,209,127,102,59,37,26,19,20,9,9,4,7,2,4,0,5,1,8,0,2,1,2,3,2,4,2,2,2,3,1,2,0,0,0,0,0,0,0
"sci",2012-140T05:30,"1/1716099713:39",3.906756661851755E+08,3.906792661851748E+08,-1,-1,-1,-1,-1,-1,-1,-1,2012-140T05:00,2012-140T06:00,2012,140.2292,14.269,0.172,19.164,0,0,0,0,0,0,0,4,22,50,95,156,242,452,540,502,297,132,57,43,28,28,28,20,40,36,58,171,176,227,230,173,73,39,23,16,6,10,13,12,9,25,19,29,18,10,2,1,7,6,6,6,3,7,3,5,4,10,19,9,5,1,4,4,2,4,6,7,9,15,42,116,219,156,107,78,32,29,13,17,8,3,1,13,2,2,4,1,2,4,1,2,0,0,1,0,4,0,4,1,0,0,1,2,1,0,0,0,0,0
"sci",2012-140T06:30,"1/1716103313:45",3.906792661851748E+08,3.906828661851739E+08,-1,-1,-1,-1,-1,-1,-1,-1,2012-140T06:00,2012-140T07:00,2012,140.2708,13.884,0.165,19.234,0,0,0,0,0,0,0,0,22,48,103,140,222,467,491,505,307,106,63,36,24,26,20,23,30,29,61,185,173,236,243,186,88,27,22,27,14,10,19,17,20,17,16,20,19,14,7,5,6,11,3,5,1,7,0,3,8,13,20,9,1,4,1,1,7,4,7,10,4,16,33,130,216,157,99,72,49,32,18,11,11,2,4,6,4,4,5,7,2,7,4,2,2,2,1,4,1,2,1,1,0,0,1,0,1,0,0,0,0,0
"sci",2012-140T07:30,"1/1716106913:51",3.906828661851739E+08,3.906864661851731E+08,-1,-1,-1,-1,-1,-1,-1,-1,2012-140T07:00,2012-140T08:00,2012,140.3125,13.493,0.158,19.309,0,0,0,0,0,0,0,7,30,65,95,144,202,434,518,452,284,122,75,50,32,24,29,18,30,34,59,161,164,253,224,195,78,46,26,14,22,7,21,11,13,27,19,28,25,13,11,4,7,4,3,1,4,8,4,3,11,8,21,14,8,6,8,2,7,4,8,4,3,15,41,106,241,150,112,75,41,31,22,12,13,7,9,5,5,3,2,5,2,4,2,0,0,2,0,0,1,0,2,1,0,2,2,1,0,1,0,0,0,0
"sci",2012-140T08:30,"1/1716110513:56",3.906864661851731E+08,3.906900661851723E+08,-1,-1,-1,-1,-1,-1,-1,-1,2012-140T08:00,2012-140T09:00,2012,140.3542,13.094,0.151,19.388,0,0,0,0,0,0,0,2,27,64,97,138,213,476,555,553,399,151,74,36,26,26,30,18,36,34,53,113,184,234,223,207,106,36,24,14,10,11,17,12,14,21,20,29,20,7,6,5,5,6,1,4,2,1,2,5,7,15,19,14,7,4,4,3,2,5,5,10,12,15,41,85,236,151,143,83,35,21,19,6,15,7,8,5,8,5,7,5,5,3,0,2,1,4,3,3,0,0,0,0,2,1,1,1,0,0,0,0,0,0
"sci",2012-140T09:30,"1/1716114113:62",3.906900661851723E+08,3.906936661851714E+08,-1,-1,-1,-1,-1,-1,-1,-1,2012-140T09:00,2012-140T10:00,2012,140.3958,12.689,0.143,19.472,0,0,0,0,0,0,0,9,37,124,139,280,425,1244,1396,1462,1125,422,158,75,71,54,30,38,43,49,45,172,138,215,248,183,109,48,29,17,19,17,11,12,18,31,22,28,20,6,5,2,3,4,4,5,2,4,4,5,7,19,19,18,8,9,4,5,2,2,12,11,14,17,34,151,328,207,183,121,59,31,22,15,13,7,10,8,8,7,5,3,9,4,0,5,2,2,0,1,1,1,0,0,0,2,1,1,1,0,0,0,0,0
"sci",2012-140T10:30,"1/1716117713:68",3.906936661851714E+08,3.906972661851706E+08,-1,-1,-1,-1,-1,-1,-1,-1,2012-140T10:00,2012-140T11:00,2012,140.4375,12.276,0.134,19.562,0,0,0,0,0,0,0,10,23,143,246,493,484,1851,1708,1435,991,379,185,115,73,55,59,41,48,54,77,314,215,254,204,145,76,43,20,18,11,13,12,7,20,40,37,13,21,13,9,5,2,6,7,4,5,7,3,4,17,19,33,17,8,3,5,4,1,5,11,10,15,25,45,204,496,300,243,159,63,48,35,21,15,6,17,9,2,4,4,8,9,3,2,3,5,2,0,4,1,0,1,2,3,0,2,0,0,0,0,0,0,0
"sci",2012-140T11:30,"1/1716121313:74",3.906972661851706E+08,3.907008661851698E+08,-1,-1,-1,-1,-1,-1,-1,-1,2012-140T11:00,2012-140T12:00,2012,140.4792,11.855,0.124,19.658,0,0,0,0,0,0,0,19,45,212,335,571,827,2664,2605,2179,1564,583,263,169,128,83,60,64,64,58,104,382,271,395,359,233,131,63,27,37,37,17,19,19,23,50,43,25,29,17,17,5,6,8,12,5,3,7,5,8,26,24,37,23,4,6,8,9,4,6,10,15,15,27,66,231,546,312,276,188,81,50,21,30,29,7,6,8,14,7,8,10,3,3,7,2,2,1,1,2,1,1,2,0,3,0,1,2,3,0,0,0,0,0
"sci",2012-140T12:30,"1/1716124913:80",3.907008661851698E+08,3.907044661851689E+08,-1,-1,-1,-1,-1,-1,-1,-1,2012-140T12:00,2012-140T13:00,2012,140.5208,11.427,0.114,19.761,0,0,0,0,0,0,0,17,61,264,405,682,1001,3467,3177,2509,1839,598,326,192,133,96,89,62,91,86,105,439,357,505,405,297,162,68,35,39,23,26,26,25,30,52,43,36,29,20,10,4,3,10,8,10,5,13,3,16,26,41,50,19,11,15,4,9,8,7,7,9,14,31,65,272,719,408,318,244,111,67,36,26,24,16,11,17,12,9,11,11,5,4,10,5,3,3,1,1,2,3,1,1,4,0,1,4,0,0,0,0,0,0
"sci",2012-140T13:30,"1/1716128513:86",3.907044661851689E+08,3.907080661851681E+08,-1,-1,-1,-1,-1,-1,-1,-1,2012-140T13:00,2012-140T14:00,2012,140.5625,10.990,0.103,19.873,0,0,0,0,0,0,0,11,73,236,328,938,1373,4585,4296,3296,2147,824,449,248,170,112,100,91,106,100,167,569,503,707,547,351,207,89,47,35,32,33,43,31,29,70,69,45,56,27,12,9,10,6,16,10,10,9,7,12,20,40,60,39,20,7,10,14,4,15,18,24,19,31,96,375,806,568,482,277,158,79,59,41,28,18,15,6,14,11,10,12,16,10,3,2,4,3,0,3,2,2,4,3,5,4,5,3,0,0,0,0,0,0
"sci",2012-140T14:30,"1/1716132113:91",3.907080661851681E+08,3.907116661851673E+08,-1,-1,-1,-1,-1,-1,-1,-1,2012-140T14:00,2012-140T15:00,2012,140.6042,10.545,0.090,19.994,0,0,0,0,0,0,0,10,80,198,397,791,1688,4740,4486,4310,2593,1008,494,274,145,145,119,109,98,104,147,547,577,745,709,525,290,100,59,55,39,39,35,40,28,73,60,65,63,29,19,13,8,15,19,12,13,11,6,5,18,32,66,50,17,13,9,11,10,9,30,22,24,59,104,412,814,656,490,337,162,100,90,40,41,26,23,26,16,13,12,10,17,9,9,6,3,3,3,4,3,4,3,4,3,1,5,3,3,0,0,0,0,0
"sci",2012-140T15:30,"1/1716135713:97",3.907116661851673E+08,3.907152661851664E+08,-1,-1,-1,-1,-1,-1,-1,-1,2012-140T15:00,2012-140T16:00,2012,140.6458,10.091,0.077,20.125,0,0,0,0,0,0,0,14,76,181,382,570,1686,4361,4481,4829,3063,1138,558,273,171,153,114,83,92,95,170,397,504,713,709,607,290,150,79,51,52,29,40,34,40,55,61,62,72,34,21,14,11,17,12,10,14,15,7,21,17,46,62,50,15,15,8,13,12,14,19,28,22,55,93,373,833,670,504,351,198,113,72,51,30,30,17,25,17,17,20,6,18,19,3,11,2,9,7,5,2,4,6,2,1,10,4,4,4,0,0,0,0,0
"sci",2012-140T16:30,"1/1716139313:103",3.907152661851664E+08,3.907188661851656E+08,-1,-1,-1,-1,-1,-1,-1,-1,2012-140T16:00,2012-140T17:00,2012,140.6875,9.628,0.062,20.269,0,0,0,0,0,0,0,4,52,91,179,258,633,1289,1403,1542,1058,423,212,95,71,64,57,31,47,54,97,241,293,394,413,374,154,73,41,36,30,25,28,32,23,35,44,54,43,21,12,11,5,7,10,5,5,6,10,7,17,27,55,39,11,7,7,10,7,12,11,17,30,33,62,223,461,336,281,224,100,70,43,28,21,19,29,13,9,8,8,9,3,9,6,6,5,1,2,3,1,1,5,2,1,1,2,1,1,0,0,0,0,0
"sci",2012-140T17:30,"1/1716142913:109",3.907188661851656E+08,3.907224661851647E+08,-1,-1,-1,-1,-1,-1,-1,-1,2012-140T17:00,2012-140T18:00,2012,140.7292,9.156,0.046,20.428,0,0,0,0,0,0,0,4,52,58,111,146,146,321,422,461,338,133,68,36,31,27,22,16,25,38,53,60,133,190,262,221,119,37,26,17,16,16,17,32,34,24,21,24,35,15,14,6,11,9,9,7,4,9,6,3,9,19,37,36,10,7,1,6,3,12,17,21,18,27,59,120,267,184,166,92,58,47,29,20,10,9,12,8,6,4,5,2,5,7,4,1,1,2,3,3,2,1,3,1,1,3,2,2,0,0,0,0,0,0
"sci",2012-140T18:30,"1/1716146513:115",3.907224661851647E+08,3.907260661851639E+08,-1,-1,-1,-1,-1,-1,-1,-1,2012-140T18:00,2012-140T19:00,2012,140.7708,8.675,0.027,20.604,0,0,0,0,0,0,0,1,35,69,126,202,307,906,1169,1192,949,418,189,108,55,43,48,31,41,51,61,116,125,215,374,393,216,75,40,15,32,22,26,31,31,46,20,38,49,29,20,4,10,11,10,8,8,12,10,7,15,24,42,33,20,10,10,14,5,11,6,17,18,25,83,263,436,346,271,177,93,72,43,36,24,17,15,16,15,14,3,7,10,4,9,3,4,4,7,1,2,1,3,3,1,0,3,5,2,0,0,0,0,0
"sci",2012-140T19:30,"1/1716150113:121",3.907260661851639E+08,3.907296661851631E+08,-1,-1,-1,-1,-1,-1,-1,-1,2012-140T19:00,2012-140T20:00,2012,140.8125,8.184,0.007,20.801,0,0,0,0,0,0,0,7,28,84,178,275,307,806,1140,1076,1042,423,225,141,95,56,56,50,63,69,70,230,165,223,231,177,108,56,22,21,17,21,22,20,23,45,41,45,29,23,15,11,11,10,11,4,7,9,7,5,21,32,45,29,6,11,6,11,6,8,9,15,16,24,52,265,543,420,322,226,92,56,32,28,16,18,14,12,9,16,14,8,9,3,5,2,5,3,3,3,3,3,3,1,1,2,3,3,2,0,0,0,0,0
"sci",2012-140T20:30,"1/1716153713:127",3.907296661851631E+08,3.907332661851622E+08,-1,-1,-1,-1,-1,-1,-1,-1,2012-140T20:00,2012-140T21:00,2012,140.8542,7.684,-0.016,21.024,0,0,0,0,0,0,0,2,26,96,190,316,300,952,982,698,646,341,215,119,90,47,69,59,59,72,61,334,249,272,216,104,74,37,26,23,22,19,15,16,20,67,39,48,32,15,12,5,14,11,10,4,5,9,4,8,24,63,123,57,18,10,9,7,5,9,14,12,13,27,73,302,649,537,457,307,142,70,51,30,21,12,12,19,8,10,8,9,6,11,6,6,5,6,3,4,6,4,2,3,2,6,3,2,2,0,0,0,0,0
"sci",2012-140T21:30,"1/1716157313:132",3.907332661851622E+08,3.907368661851614E+08,-1,-1,-1,-1,-1,-1,-1,-1,2012-140T21:00,2012-140T22:00,2012,140.8958,7.176,-0.043,21.278,0,0,0,0,0,0,0,4,20,63,112,204,256,637,719,735,658,279,161,114,60,52,33,36,23,65,56,163,160,220,173,157,100,48,23,23,31,15,19,14,19,42,33,37,27,11,8,12,7,16,16,11,7,7,5,5,12,42,111,73,18,15,4,10,9,11,7,11,17,28,53,183,437,405,255,212,111,86,39,40,25,24,10,9,6,7,12,12,9,7,7,8,6,3,4,9,0,1,2,0,0,3,3,5,1,0,0,0,0,0
"sci",2012-140T22:30,"1/1716160913:138",3.907368661851614E+08,3.907404661851606E+08,-1,-1,-1,-1,-1,-1,-1,-1,2012-140T22:00,2012-140T23:00,2012,140.9375,6.661,-0.073,21.571,0,0,0,0,0,0,0,2,23,47,73,113,158,329,386,479,432,176,93,53,33,30,22,17,26,31,26,65,94,124,134,125,108,36,21,19,24,21,22,18,16,23,16,29,27,22,11,7,12,9,16,7,10,9,7,7,15,14,61,66,37,11,9,19,7,10,7,15,26,23,37,103,262,223,131,116,67,34,26,26,14,15,25,9,11,8,12,7,7,5,9,4,7,3,6,4,6,3,7,7,0,1,8,2,4,0,0,0,0,0
"sci",2012-140T23:30,"1/1716164513:144",3.907404661851606E+08,3.907440661851597E+08,-1,-1,-1,-1,-1,-1,-1,-1,2012-140T23:00,2012-141T00:00,2012,140.9792,6.141,-0.108,21.913,0,0,0,0,0,0,0,3,25,37,43,77,156,357,436,535,492,248,123,60,29,30,19,21,16,17,28,32,42,64,126,125,79,33,13,12,9,12,11,23,14,8,18,22,29,18,10,6,11,4,18,11,8,12,6,5,6,16,49,63,29,11,17,12,9,7,8,13,10,19,45,108,260,228,173,124,87,44,31,26,26,23,16,11,10,9,11,7,10,12,5,4,4,6,5,3,4,2,2,3,5,3,3,3,2,0,0,0,0,0
"sci",2012-141T00:30,"1/1716168113:150",3.907440661851597E+08,3.907476661851589E+08,-1,-1,-1,-1,-1,-1,-1,-1,2012-141T00:00,2012-141T01:00,2012,141.0208,5.619,-0.148,22.319,0,0,0,0,0,0,0,0,4,13,18,16,51,161,247,318,263,165,49,21,12,17,7,5,6,6,5,10,10,13,23,28,27,8,10,4,9,6,8,14,9,15,5,8,15,5,5,7,8,5,9,4,4,1,8,6,9,12,13,24,14,8,8,13,7,7,8,12,17,23,40,62,143,122,112,83,57,24,32,14,18,20,12,13,9,12,9,11,16,13,8,7,9,10,9,7,3,5,5,3,9,1,4,5,9,1,0,0,0,0
"sci",2012-141T01:30,"1/1716171713:156",3.907476661851589E+08,3.907512661851581E+08,-1,-1,-1,-1,-1,-1,-1,-1,2012-141T01:00,2012-141T02:00,2012,141.0625,5.102,-0.194,22.807,0,0,0,0,0,0,0,0,2,5,12,7,11,5,21,10,23,14,2,11,12,3,5,2,6,4,5,7,5,4,4,6,4,4,3,2,0,3,2,3,3,3,5,6,5,3,9,6,6,6,4,6,7,7,6,7,3,12,9,7,11,11,11,11,11,4,3,1,5,7,8,10,5,3,9,4,7,9,4,9,6,7,8,11,7,7,5,2,5,6,8,9,6,6,4,8,5,4,7,8,5,7,1,2,4,3,0,0,0,0
"sci",2012-141T02:30,"1/1716175313:162",3.907512661851581E+08,3.907548661851572E+08,-1,-1,-1,-1,-1,-1,-1,-1,2012-141T02:00,2012-141T03:00,2012,141.1042,4.600,-0.246,23.405,0,0,0,0,0,0,0,1,12,6,18,11,10,14,10,14,18,24,6,14,19,21,10,15,14,19,13,18,17,15,15,13,10,20,12,14,13,13,12,17,16,18,12,14,18,14,18,18,25,23,22,19,27,13,16,28,25,23,35,23,26,30,47,37,32,21,16,14,18,26,20,18,17,15,27,16,22,21,16,22,18,24,20,22,15,17,30,20,17,13,19,16,20,11,24,15,14,12,20,15,16,17,27,16,25,1,0,0,0,0
"sci",2012-141T03:30,"1/1716178913:167",3.907548661851572E+08,3.907584661851564E+08,-1,-1,-1,-1,-1,-1,-1,-1,2012-141T03:00,2012-141T04:00,2012,141.1458,4.131,-0.302,0.143,0,0,0,0,0,0,0,1,55,65,72,59,47,61,62,73,68,52,65,54,70,78,64,82,62,59,52,70,47,64,59,82,51,64,62,70,62,55,58,62,62,77,72,57,70,84,92,93,105,103,75,79,111,113,80,107,103,126,128,162,140,141,178,191,114,78,70,76,85,91,89,72,94,82,80,86,79,69,90,73,88,84,78,83,97,82,92,97,72,84,95,88,82,81,105,95,90,106,82,90,87,78,97,91,72,4,0,0,0,0
"sci",2012-141T04:30,"1/1716182513:173",3.907584661851564E+08,3.907620661851556E+08,-1,-1,-1,-1,-1,-1,-1,-1,2012-141T04:00,2012-141T05:00,2012,141.1875,3.722,-0.355,1.057,0,0,0,0,0,0,0,11,165,193,192,176,167,176,192,162,197,216,171,195,223,189,169,228,200,116,108,82,77,101,80,82,79,68,88,87,64,56,77,69,57,79,79,84,86,81,101,79,69,82,94,90,129,97,113,102,129,115,138,124,150,159,170,191,134,77,82,85,99,73,79,60,60,62,83,71,66,56,78,67,66,85,74,70,75,62,81,65,84,61,77,73,79,72,67,74,69,79,65,83,85,75,60,79,68,2,0,0,0,0
"sci",2012-141T05:30,"1/1716186113:179",3.907620661851556E+08,3.907656661851547E+08,-1,-1,-1,-1,-1,-1,-1,-1,2012-141T05:00,2012-141T06:00,2012,141.2292,3.411,-0.392,2.166,0,0,0,0,0,0,0,16,187,215,226,204,161,190,219,178,213,243,203,223,261,262,246,285,255,80,78,59,70,98,90,77,79,73,61,79,60,62,62,67,72,73,77,79,78,87,81,75,80,87,75,83,104,108,84,127,108,100,94,122,119,139,163,171,116,77,69,73,61,81,60,55,67,68,63,82,64,63,58,64,65,56,48,61,79,74,64,60,62,57,71,55,55,66,66,77,84,45,59,56,72,53,73,59,71,4,0,0,0,0
"sci",2012-141T06:30,"1/1716189713:185",3.907656661851547E+08,3.907692661851538E+08,-1,-1,-1,-1,-1,-1,-1,-1,2012-141T06:00,2012-141T07:00,2012,141.2708,3.245,-0.394,3.441,0,0,0,0,0,0,0,8,179,207,241,210,180,187,240,226,202,222,227,212,239,228,213,264,244,78,80,60,70,88,72,75,77,78,74,70,56,57,78,60,68,85,65,58,75,58,75,96,79,98,87,92,80,95,96,103,103,124,119,127,140,147,148,251,104,70,73,79,92,80,58,60,68,65,57,62,61,59,73,63,67,69,61,64,69,58,60,61,55,63,67,58,63,72,61,59,59,55,65,63,56,73,68,63,72,4,0,0,0,0
"sci",2012-141T07:30,"1/1716193313:191",3.907692661851538E+08,3.907728661851530E+08,-1,-1,-1,-1,-1,-1,-1,-1,2012-141T07:00,2012-141T08:00,2012,141.3125,3.254,-0.349,4.780,0,0,0,0,0,0,0,11,200,199,217,221,183,177,219,208,224,242,209,169,239,230,204,307,235,99,103,71,62,92,79,89,71,72,87,95,55,74,65,67,81,82,72,69,79,73,93,70,63,98,100,82,90,94,97,116,104,102,106,127,138,137,141,181,131,80,68,69,74,81,59,59,60,58,75,67,55,59,63,60,62,57,58,54,85,60,60,70,60,85,58,52,57,60,58,62,65,58,84,59,78,61,66,65,71,6,0,0,0,0
"sci",2012-141T08:30,"1/1716196913:197",3.907728661851530E+08,3.907764661851522E+08,-1,-1,-1,-1,-1,-1,-1,-1,2012-141T08:00,2012-141T09:00,2012,141.3542,3.438,-0.267,6.041,0,0,0,0,0,0,0,9,103,153,142,157,138,128,157,111,146,150,148,135,169,139,154,190,143,113,95,91,100,128,95,91,103,88,88,86,71,82,84,68,65,75,82,72,85,85,98,97,82,111,94,84,108,87,115,104,99,109,126,133,166,162,181,220,140,88,96,82,99,103,67,72,81,80,111,91,69,94,59,82,96,92,80,81,80,86,82,79,68,95,99,73,93,83,84,95,52,95,108,71,97,81,92,80,94,7,0,0,0,0
"sci",2012-141T09:30,"1/1716200513:202",3.907764661851522E+08,3.907800661851513E+08,-1,-1,-1,-1,-1,-1,-1,-1,2012-141T09:00,2012-141T10:00,2012,141.3958,3.760,-0.173,7.129,0,0,0,0,0,0,0,1,19,28,36,30,19,19,33,20,35,27,29,24,23,35,26,21,27,32,28,29,30,32,26,42,37,30,36,28,21,27,44,30,19,30,40,30,49,43,47,40,42,30,36,35,37,41,54,50,50,52,57,65,76,73,77,78,57,34,35,32,25,41,39,34,37,33,42,40,42,43,37,50,45,41,38,30,31,49,47,34,49,41,42,42,34,40,42,32,35,44,44,43,40,40,47,45,33,1,0,0,0,0
"sci",2012-141T10:30,"1/1716204113:208",3.907800661851513E+08,3.907836661851505E+08,-1,-1,-1,-1,-1,-1,-1,-1,2012-141T10:00,2012-141T11:00,2012,141.4375,4.178,-0.085,8.023,0,0,0,0,0,0,0,2,13,17,5,13,9,14,32,14,18,17,9,11,12,11,13,9,9,12,7,11,13,5,4,8,8,7,4,10,12,7,12,6,6,8,13,4,6,8,11,7,11,3,9,9,14,14,12,11,12,16,10,20,16,20,15,25,10,6,8,5,6,5,11,6,6,5,9,11,5,9,10,16,10,6,10,8,8,9,6,8,9,6,10,12,9,10,3,14,7,7,14,10,7,6,5,10,9,1,0,0,0,0
"sci",2012-141T11:30,"1/1716207713:214",3.907836661851505E+08,3.907872661851496E+08,-1,-1,-1,-1,-1,-1,-1,-1,2012-141T11:00,2012-141T12:00,2012,141.4792,4.651,-0.011,8.744,0,0,0,0,0,0,0,0,2,7,19,27,24,91,114,124,101,34,50,40,11,6,7,4,10,9,6,7,9,7,7,1,7,6,4,3,2,4,1,1,1,6,4,6,4,2,3,4,5,2,3,2,2,6,7,4,5,6,15,12,7,8,8,10,5,4,0,6,6,4,5,19,63,56,16,15,12,6,4,5,2,5,4,5,2,5,1,1,0,3,7,3,4,2,3,3,3,4,7,3,7,2,2,4,4,0,0,0,0,0
"sci",2012-141T12:30,"1/1716211313:220",3.907872661851496E+08,3.907908661851488E+08,-1,-1,-1,-1,-1,-1,-1,-1,2012-141T12:00,2012-141T13:00,2012,141.5208,5.155,0.050,9.327,0,0,0,0,0,0,0,0,8,19,33,42,110,309,370,400,259,162,110,71,25,10,13,8,8,10,5,12,10,12,3,9,4,9,4,3,5,5,3,4,5,11,6,2,5,6,5,6,3,5,6,5,3,6,10,8,5,14,36,36,15,4,3,3,8,4,4,6,4,6,10,57,157,132,63,53,36,18,14,15,4,7,4,8,11,9,3,2,5,3,2,3,6,6,2,2,2,2,2,4,4,2,2,4,4,0,0,0,0,0
"sci",2012-141T13:30,"1/1716214913:226",3.907908661851488E+08,3.907944661851479E+08,-1,-1,-1,-1,-1,-1,-1,-1,2012-141T13:00,2012-141T14:00,2012,141.5625,5.672,0.099,9.806,0,0,0,0,0,0,0,2,9,21,34,71,243,579,699,695,485,346,212,103,46,18,24,11,18,10,14,16,26,18,20,12,22,13,13,8,6,7,9,4,6,5,10,12,15,4,7,7,5,5,11,8,8,8,13,6,10,19,44,52,20,10,9,10,7,4,6,8,11,11,11,71,239,209,129,118,49,25,20,9,17,11,5,5,8,16,15,8,10,9,4,9,6,7,4,8,2,2,9,5,4,4,5,3,9,0,0,0,0,0
"sci",2012-141T14:30,"1/1716218513:232",3.907944661851479E+08,3.907980661851471E+08,-1,-1,-1,-1,-1,-1,-1,-1,2012-141T14:00,2012-141T15:00,2012,141.6042,6.194,0.139,10.204,0,0,0,0,0,0,0,1,16,29,50,67,324,849,783,742,553,266,183,77,25,17,23,12,21,6,14,17,30,33,27,39,16,12,13,7,8,7,5,8,7,7,6,16,17,5,5,2,3,5,5,5,3,5,4,7,6,7,32,34,19,6,8,11,7,4,4,5,4,9,21,71,227,182,142,118,59,28,20,20,12,11,8,8,5,7,7,8,6,5,4,5,5,0,8,5,6,2,2,3,5,6,3,4,3,0,0,0,0,0
"sci",2012-141T15:30,"1/1716222113:237",3.907980661851471E+08,3.908016661851463E+08,-1,-1,-1,-1,-1,-1,-1,-1,2012-141T15:00,2012-141T16:00,2012,141.6458,6.714,0.171,10.540,0,0,0,0,0,0,0,2,22,20,51,96,357,1190,1067,1038,850,312,192,77,39,40,25,21,29,18,20,30,48,72,60,53,48,16,11,11,5,8,13,8,12,10,10,25,21,11,7,5,5,6,6,3,8,6,5,6,10,11,32,37,12,6,8,11,6,7,11,8,4,11,17,71,202,227,149,135,70,53,20,21,13,5,11,4,9,4,11,3,3,7,6,7,4,2,5,3,4,4,1,0,3,4,3,1,3,0,0,0,0,0
"sci",2012-141T16:30,"1/1716225713:243",3.908016661851463E+08,3.908052661851454E+08,-1,-1,-1,-1,-1,-1,-1,-1,2012-141T16:00,2012-141T17:00,2012,141.6875,7.229,0.198,10.828,0,0,0,0,0,0,0,1,14,22,59,119,372,1348,1178,1207,798,288,162,61,41,49,35,22,19,19,15,27,49,70,62,75,45,22,12,8,5,7,7,9,9,12,8,14,19,12,14,6,2,4,5,5,7,2,5,6,4,14,20,28,11,8,9,4,6,5,8,9,9,10,24,70,170,178,132,78,56,37,23,21,9,12,8,5,6,7,5,3,5,2,3,2,5,5,3,0,3,3,0,1,6,1,4,0,0,0,0,0,0,0
"sci",2012-141T17:30,"1/1716229313:249",3.908052661851454E+08,3.908088661851445E+08,-1,-1,-1,-1,-1,-1,-1,-1,2012-141T17:00,2012-141T18:00,2012,141.7292,7.736,0.220,11.078,0,0,0,0,0,0,0,0,17,34,55,90,417,1293,1204,1272,721,280,152,68,41,33,28,21,22,17,15,27,44,89,88,75,47,19,9,9,9,5,12,14,10,12,14,12,25,14,7,5,4,7,6,2,2,3,3,1,8,6,26,27,10,13,4,9,2,9,3,3,5,10,17,79,152,132,104,94,48,34,16,17,9,9,10,8,7,5,1,9,5,2,4,1,2,5,1,5,3,1,1,2,3,1,1,0,0,0,0,0,0,0
"sci",2012-141T18:30,"1/1716232913:255",3.908088661851445E+08,3.908124661851437E+08,-1,-1,-1,-1,-1,-1,-1,-1,2012-141T18:00,2012-141T19:00,2012,141.7708,8.235,0.239,11.297,0,0,0,0,0,0,0,0,11,27,78,118,514,1783,1551,1489,759,282,153,58,28,45,27,14,35,20,18,33,62,73,107,95,51,23,16,12,6,7,17,13,10,13,12,17,27,10,6,3,5,4,7,2,2,2,3,3,2,7,23,24,11,10,5,2,4,7,2,8,3,10,24,74,197,152,105,87,47,33,20,16,9,6,7,5,6,9,9,4,1,3,1,3,1,2,1,1,4,2,2,4,0,3,1,3,1,0,0,0,0,0
"sci",2012-141T19:30,"1/1716236514:5",3.908124661851437E+08,3.908160661851429E+08,-1,-1,-1,-1,-1,-1,-1,-1,2012-141T19:00,2012-141T20:00,2012,141.8125,8.724,0.255,11.492,0,0,0,0,0,0,0,2,17,21,55,131,451,1381,1246,1327,640,247,117,48,38,32,33,26,23,17,16,27,47,76,116,97,54,14,4,8,6,5,12,10,7,2,12,9,25,7,1,3,5,2,5,7,3,6,4,1,2,5,23,25,8,9,3,9,2,4,5,4,3,8,16,73,173,118,99,49,39,25,18,9,5,7,3,5,3,2,0,4,1,0,2,2,1,1,3,2,0,1,2,1,1,1,0,1,0,0,0,0,0,0
"sci",2012-141T20:30,"1/1716240114:11",3.908160661851429E+08,3.908196661851420E+08,-1,-1,-1,-1,-1,-1,-1,-1,2012-141T20:00,2012-141T21:00,2012,141.8542,9.204,0.269,11.666,0,0,0,0,0,0,0,1,13,19,42,96,327,1025,962,1079,516,222,86,69,27,35,20,15,27,15,12,19,37,48,70,90,31,12,8,7,6,5,6,5,8,15,8,18,23,8,6,3,5,4,3,4,6,4,2,3,4,5,18,16,6,4,4,7,3,2,3,6,4,10,25,68,125,82,63,47,36,21,16,6,5,5,6,4,2,7,6,5,0,1,1,2,0,1,0,1,0,1,0,2,2,0,0,2,0,0,0,0,0,0
"sci",2012-141T21:30,"1/1716243714:16",3.908196661851420E+08,3.908232661851411E+08,-1,-1,-1,-1,-1,-1,-1,-1,2012-141T21:00,2012-141T22:00,2012,141.8958,9.676,0.281,11.823,0,0,0,0,0,0,0,0,11,17,42,87,294,700,730,737,397,132,64,28,24,19,23,11,13,7,14,16,21,33,47,44,12,12,2,5,8,7,8,5,7,13,5,6,12,7,7,3,3,5,3,2,0,2,2,2,2,6,12,10,2,4,1,6,1,3,4,1,2,5,10,42,89,51,38,24,10,5,9,4,0,5,3,2,6,0,1,2,3,1,0,0,0,1,1,1,1,0,0,1,0,2,0,0,1,0,0,0,0,0